Skip Page Navigation
NASA JPL Caltech
NASA Logo - Jet Propulsion Laboratory + View the NASA Portal
+ Center for Near-Earth Object Studies
JPL Home Earth Solar System Stars & Galaxies Technology
JPL Solar System Dynamics
BODIES ORBITS EPHEMERIDES TOOLS PHYSICAL DATA DISCOVERY FAQ SITE MAP
JPL Small-Body Database Browser
Search: [ help ]  
47217 (1999 UF18)
Classification: Main-belt Asteroid          SPK-ID: 2047217
Ephemeris | Orbit Diagram | Orbital Elements | Mission Design | Physical Parameters | Discovery Circumstances ]

[ show orbit diagram ]
Orbital Elements at Epoch 2459000.5 (2020-May-31.0) TDB
Reference: JPL 23 (heliocentric ecliptic J2000)
 Element Value Uncertainty (1-sigma)   Units 
e .1025075615913618 4.5323e-08  
a 2.212690070943534 8.4205e-09 au
q 1.985872607213695 1.0144e-07 au
i 2.299992459937736 4.5788e-06 deg
node 138.155545804796 0.00011129 deg
peri 40.2802071977834 0.00011345 deg
M 300.1304908926748 2.4476e-05 deg
tp 2459200.432089053971
(2020-Dec-16.93208905)
8.2325e-05 TDB
period 1202.207152398766
3.29
6.8626e-06
1.879e-08
d
yr
n .2994492249373925 1.7094e-09 deg/d
Q 2.439507534673373 9.2837e-09 au
  Orbit Determination Parameters
   # obs. used (total)      779  
   data-arc span      7987 days (21.87 yr)  
   first obs. used      1998-05-22  
   last obs. used      2020-04-03  
   planetary ephem.      DE431  
   SB-pert. ephem.      SB431-N16  
   condition code      0  
   norm. resid. RMS      .58081  
   source      ORB  
   producer      Otto Matic  
   solution date      2020-Nov-12 23:43:20  

Additional Information
 Earth MOID = .990128 au 
 Jupiter MOID = 2.51918 au 
 T_jup = 3.648 
[ show covariance matrix ]

Ephemeris | Orbit Diagram | Orbital Elements | Mission Design | Physical Parameters | Discovery Circumstances ]

Physical Parameter Table
Parameter Symbol Value Units Sigma Reference Notes
absolute magnitude H 16.0   n/a MPO452815  

47217 (1999 UF18)          Discovered 1999-Oct-30 by Spacewatch at Kitt Peak
Reference: 20020921/Numbers.arcLast Updated: 2004-04-19

Alternate Designations
 1999 UF18 = 1998 KS31 
Ephemeris | Orbit Diagram | Orbital Elements | Mission Design | Physical Parameters | Discovery Circumstances ]
ABOUT SSD CREDITS/AWARDS PRIVACY/COPYRIGHT GLOSSARY LINKS
FirstGov 2020-Nov-30 02:40 UT
(server date/time)  
NASA Home Page
Site Manager:   Ryan S. Park
Webmaster  Alan B. Chamberlin